Tanquary Camp, Nunavut

11:23 AM EST on January 23, 2018 (GMT -0500)
Tanquary Camp

Weather History for 71917 - November, 2012

Change the Weather History Date:

Tuesday, November 20, 2012

  Actual Average Record
Temperature  
Mean Temperature -23 °F -  
Max Temperature -16 °F -22 °F - ()
Min Temperature -30 °F -35 °F - ()
Degree Days  
Heating Degree Days 88    
Moisture  
Dew Point -29 °F    
Average Humidity 65    
Maximum Humidity 70    
Minimum Humidity 49    
Precipitation  
Precipitation 0.00 in 0.00 in - ()
Sea Level Pressure  
Sea Level Pressure 30.25 in    
Wind  
Wind Speed 1 mph ()    
Max Wind Speed 2 mph    
Max Gust Speed -    
Visibility 13.0 miles    
Events Snow    
T = Trace of Precipitation, MM = Missing Value Source: Averaged Metar Reports

Daily Weather History Graph

Daily Weather History Graph

Search for Another Location

Airport or City:

Trip Planner

Search our weather history database for the weather conditions in past years. The results will help you decide how hot, cold, wet, or windy it might be!

Date:

Astronomy

Dec. 31, 1969 Rise Set
Actual Time Sun does not rise Sun does not rise
Civil Twilight Sun does not rise Sun does not rise
Nautical Twilight 9:52 AM EST 3:04 PM EST
Astronomical Twilight 7:04 AM EST 5:51 PM EST
Moon 3:19 PM EST (11/20) 11:19 PM EST (11/20)
Length of Visible Light 0h 00m
Length of Day
0h 00m
Waxing Crescent, 51% of the Moon is Illuminated
Nov 20
Waxing Crescent
Nov 28
Full
Dec 6
Last Quarter
Dec 13
New
Dec 20
First Quarter

Hourly Weather History & Observations

Time (EST) Temp. Dew Point Humidity Pressure Visibility Wind Dir Wind Speed Gust Speed Precip Events Conditions
1:00 AM -24 °F -32 °F 49% 30.26 in 15 mi SSE 2.3 mph - - Snow Light Snow
1:00 AM -23.8 °F -31.0 °F 69% 30.26 in 15.0 mi SSE 2.3 mph - N/A Snow Light Snow
2:00 AM -23.8 °F -31.0 °F 69% 30.25 in 10.0 mi Calm Calm - N/A Snow Light Snow
3:00 AM -23.8 °F -31.0 °F 69% 30.26 in 10.0 mi Calm Calm - N/A Snow Light Snow
4:00 AM -22.0 °F -31.0 °F 63% 30.26 in 10.0 mi Calm Calm - N/A Snow Light Snow
5:00 AM -23.8 °F -31.0 °F 69% 30.26 in 10.0 mi Calm Calm - N/A Snow Light Snow
6:00 AM -25.6 °F -32.8 °F 69% 30.25 in 15.0 mi Calm Calm - N/A Snow Light Snow
6:20 AM - - N/A% - 15.0 mi Calm Calm - N/A   Clear
7:00 AM -25 °F -33 °F 50% 30.26 in 15 mi Calm Calm - - Snow Snow
7:00 AM -25.6 °F -32.8 °F 69% 30.26 in 15.0 mi Calm Calm - N/A   Clear
8:00 AM -25.6 °F -32.8 °F 69% 30.26 in 15.0 mi Calm Calm - N/A   Clear
9:00 AM -23.8 °F -31.0 °F 69% 30.26 in 10.0 mi Calm Calm - N/A   Overcast
9:30 AM - - N/A% - 10.0 mi Calm Calm - N/A   Unknown
10:00 AM -20.2 °F -29.2 °F 63% 30.25 in 15.0 mi Calm Calm - N/A Snow Light Snow
11:00 AM -20.2 °F -27.4 °F 69% 30.25 in 15.0 mi Calm Calm - N/A Snow Light Snow
12:00 PM -20.2 °F -27.4 °F 69% 30.25 in 15.0 mi Calm Calm - N/A Snow Light Snow
1:00 PM -19 °F -27 °F 50% 30.25 in 15 mi Calm Calm - - Snow Light Snow
1:00 PM -20.2 °F -27.4 °F 69% 30.25 in 15.0 mi Calm Calm - N/A Snow Light Snow
2:00 PM -18.4 °F -27.4 °F 63% 30.24 in 15.0 mi Calm Calm - N/A Snow Light Snow
3:00 PM -18.4 °F -25.6 °F 70% 30.25 in 15.0 mi Calm Calm - N/A Snow Light Snow
4:00 PM -18.4 °F -25.6 °F 70% 30.25 in 15.0 mi Calm Calm - N/A Snow Light Snow
5:00 PM -18.4 °F -25.6 °F 70% 30.25 in 10.0 mi Calm Calm - N/A Snow Light Snow
6:00 PM -18.4 °F -25.6 °F 70% 30.25 in 6.0 mi Calm Calm - N/A Snow Light Snow
7:00 PM -17 °F -25 °F 52% 30.25 in 10 mi Calm Calm - - Snow Light Snow
7:00 PM -16.6 °F -25.6 °F 64% 30.25 in 10.0 mi Calm Calm - N/A Snow Light Snow
8:00 PM -20.2 °F -27.4 °F 69% 30.25 in 10.0 mi SSE 2.3 mph - N/A Snow Light Snow
9:00 PM -22.0 °F -29.2 °F 69% 30.25 in 15.0 mi SE 2.3 mph - N/A Snow Light Snow
9:24 PM - - N/A% - 15.0 mi SSE 2.3 mph - N/A   Mostly Cloudy
10:00 PM -20.2 °F -29.2 °F 63% 30.25 in 15.0 mi Calm Calm - N/A   Mostly Cloudy